"Pseudo-MPEC" for SOLRAD 11A = 1976-023C = NORAD 08748 = WB31C9F = XC83E0D

Created 2020 Jan 6 18:02:28 UT using Find_Orb

Click here for an explanation of pseudo-MPECs

TLEs (Two-Line Elements) are available for this satellite and for various other artsats listed on these pages.

This is the 'current' orbital solution for this object, based on the most recent available observations. The original version of this page has some history and discussion of how this object was identified.

 
 Astrometry: 
     6N070E7  C2006 07 09.45497 23 20 27.70 -06 54 09.5         x16.6 Vr     703
     6N070E7  C2006 07 09.45528 23 20 31.77 -06 53 55.0         x16.5 Vr     703
     6N070E7  C2006 07 09.45552 23 20 34.94 -06 53 43.5         x16.4 Vr     703
     6N070E7  C2006 07 09.45576 23 20 38.29 -06 53 32.2         x16.5 Vr     703
     6N070E8  C2006 07 09.45629 23 20 45.42 -06 53 06.2         x16.5 Vr     703
     6N070E8  C2006 07 09.45653 23 20 48.62 -06 52 54.9         x16.5 Vr     703
     6N070E8  C2006 07 09.45676 23 20 51.79 -06 52 43.5         x16.4 Vr     703
     6N070E8  C2006 07 09.45700 23 20 54.92 -06 52 32.1         x16.4 Vr     703
1976-023C     C2015 01 17.44953 09 44 01.41 +24 19 10.1         x15.1 V D0541703
1976-023C     C2015 01 17.44980 09 44 05.04 +24 18 37.9         x15.1 V D0541703
1976-023C     C2015 01 17.45007 09 44 08.79 +24 18 04.6         x15.1 V D0541703
1976-023C     C2015 01 17.45034 09 44 12.39 +24 17 32.6         x15.1 V D0541703
1976-023C     C2015 01 17.46751 09 48 08.67 +23 42 04.7         x15.2 V D0541703
1976-023C     C2015 01 17.46778 09 48 12.57 +23 41 29.0         x15.7 V D0541703
1976-023C     C2015 01 17.46805 09 48 16.06 +23 40 57.3         x15.2 V D0541703
1976-023C     C2015 01 17.46832 09 48 19.76 +23 40 23.6         x15.2 V D0541703
1976-023C     C2015 01 17.48899 09 53 04.78 +22 56 27.6         x15.3 V D0541703
1976-023C     C2015 01 17.48926 09 53 08.50 +22 55 52.7         x15.2 V D0541703
1976-023C     C2015 01 17.48953 09 53 11.78 +22 55 21.6         x16.1 V D0541703
1976-023C     C2015 01 17.48980 09 53 15.91 +22 54 43.3         x15.3 V D0541703
1976-023C     C2016 02 08.46940 12 02 46.88 -01 16 52.6          21.0 V D0541G96
1976-023C     C2016 02 08.47597 12 03 56.88 -01 33 39.5                 D0541G96
1976-023C     C2016 02 08.48911 12 06 17.76 -02 07 07.8                 D0541G96
1976-023C     C2016 02 08.51641 12 11 14.59 -03 16 18.8                 D0541G96
1976-023C     C2016 02 08.51677 12 11 18.47 -03 17 12.7          19.6 V D0541G96
1976-023C     C2016 02 08.51713 12 11 22.32 -03 18 05.4                 D0541G96
1976-023C     C2016 02 08.51749 12 11 26.38 -03 19 01.4                 D0541G96
1976-023C     C2016 02 08.54055 12 15 42.88 -04 16 51.9          21.3 V D0541G96
1976-023C     C2016 02 08.54088 12 15 46.47 -04 17 39.5                 D0541G96
1976-023C     C2016 02 08.54153 12 15 53.67 -04 19 15.3                 D0541G96
1976-023C    KC2016 02 11.75968403 12 55.10 +26 07 22.5          17.8 RqD0541J95
1976-023C    KC2016 02 11.76275503 13 41.06 +26 12 43.9          17.9 RqD0541J95
1976-023C    KC2016 02 11.77222903 16 03.40 +26 29 03.0          18.1 RqD0541J95
1976-023C    KC2016 02 11.78175503 18 27.54 +26 45 06.3          17.4 RqD0541J95
1976-023C    KC2016 02 11.78463503 19 11.30 +26 49 53.6          17.6 RqD0541J95
1976-023C     C2016 12 24.06292208 55 14.675+24 42 54.60         16.3 GU     598
1976-023C     C2016 12 24.06807308 56 26.930+24 33 26.33         16.2 GU     598
1976-023C     C2016 12 24.07496408 58 03.067+24 20 38.04         16.1 GU     598
1976-023C     C2016 12 24.08094208 59 26.302+24 09 22.25         16.0 GU     598
1976-023C    tC2016 12 29.27187 09 26 26.23 +23 41 10.5          15.7 RqD0553Y00
1976-023C    tC2016 12 29.27351 09 26 46.43 +23 37 39.8          15.9 RqD0553Y00
1976-023C    tC2016 12 29.27520 09 27 07.27 +23 34 01.5          16.0 RqD0553Y00
1976-023C    tC2017 08 02.26217 20 44 20.95 -23 34 25.9          16.1 RqD0557Y00
1976-023C    tC2017 08 02.26322 20 44 36.15 -23 32 06.6          15.9 RqD0557Y00
1976-023C    tC2017 08 02.26424 20 44 50.81 -23 29 50.2          15.8 RqD0557Y00
1976-023C    tC2018 07 14.20258 21 34 59.09 -14 41 11.5          14.3 Rq     Y00
1976-023C    tC2018 07 14.20374 21 35 12.65 -14 38 32.3          14.6 Rq     Y00
1976-023C    tC2018 07 14.20469 21 35 23.75 -14 36 22.0          14.6 Rq     Y00
     ZTF09mx* C2020 01 06.30406307 39 47.32 +22 10 28.6    ~16Ht 16.24RUNEOCPI41
     ZTF09mx  C2020 01 06.30441007 39 52.16 +22 09 56.8    ~16Ht 16.24RUNEOCPI41
     ZTF09mx  C2020 01 06.31254607 41 45.92 +21 57 48.1    ~16Ht 16.16RUNEOCPI41
     ZTF09mx  C2020 01 06.31289307 41 50.68 +21 57 17.1    ~16Ht 16.16RUNEOCPI41
     ZTF09mx  C2020 01 06.32204907 43 58.41 +21 43 12.3    ~16Ht 16.42RUNEOCPI41
     ZTF09mx  C2020 01 06.32239607 44 03.12 +21 42 40.5    ~16Ht 16.42RUNEOCPI41
     ZTF09mv* C2020 01 06.36129607 52 56.45 +20 39 43.2    ~16Ht 15.93RUNEOCPI41
     ZTF09mv  C2020 01 06.36164307 53 01.17 +20 39 07.8    ~16Ht 15.93RUNEOCPI41
     ZTF09mv  C2020 01 06.36269707 53 15.56 +20 37 19.7    ~16Ht 15.86RUNEOCPI41
     ZTF09mv  C2020 01 06.36304407 53 20.23 +20 36 45.2    ~16Ht 15.86RUNEOCPI41
     ZTF09mv  C2020 01 06.37586807 56 13.74 +20 14 49.7    ~16Ht 15.94RUNEOCPI41
     ZTF09mv  C2020 01 06.37621507 56 18.47 +20 14 13.9    ~16Ht 15.94RUNEOCPI41
     ZTF09mv  C2020 01 06.38004607 57 10.26 +20 07 34.3    ~16Ht 15.89RUNEOCPI41
     ZTF09mv  C2020 01 06.38039307 57 14.93 +20 06 57.7    ~16Ht 15.89RUNEOCPI41
     ZTF09mv  C2020 01 06.38299807 57 50.16 +20 02 23.8    ~16Ht 15.96RUNEOCPI41
     ZTF09mv  C2020 01 06.38334507 57 54.76 +20 01 47.6    ~16Ht 15.96RUNEOCPI41
     ZTF09mv  C2020 01 06.38589107 58 28.83 +19 57 22.2    ~16Ht 15.85RUNEOCPI41
     ZTF09mv  C2020 01 06.38623807 58 33.53 +19 56 44.8    ~16Ht 15.85RUNEOCPI41
     ZTF09mv  C2020 01 06.39423608 00 21.45 +19 42 30.6    ~16Ht 15.80RUNEOCPI41
     ZTF09mv  C2020 01 06.39458308 00 26.05 +19 41 53.4    ~16Ht 15.80RUNEOCPI41
     ZTF09mv  C2020 01 06.41226808 04 23.68 +19 09 51.3    ~16Ht 15.65RUNEOCPI41
     ZTF09mv  C2020 01 06.41261608 04 28.33 +19 09 12.9    ~16Ht 15.65RUNEOCPI41

Station data:
(598) Loiano  (N44.259208 E11.334090)  Italy.  Observers A. Buzzoni, R.
   Gualandi, F. Matassoni. Measurers M. Micheli, A. Buzzoni, C. Colombo, P.
   Di Lizia. 1.52-m f/8 Ritchey-Chrétien + CCD.
(703) Catalina Sky Survey  (N32.417006 W110.732640)  US/Arizona.  Observers
   T. A. Pruyne, B. M. Africano, E. C. Beshore, A. Boattini, E. J.
   Christensen, G. A. Farneth, D. C. Fuls, G. J. Garradd, A. R. Gibbs, A. D.
   Grauer, H. Gröller, R. E. Hill, J. A. Johnson, R. A. Kowalski, S. M.
   Larson, G. J. Leonard, R. G. Matheny, R. H. McNaught, D. Rankin, R. L.
   Seaman, F. C. Shelly. Measurer y. 0.68 m Schmidt + 4K CCD + 10K CCD.
(G96) Mt. Lemmon Survey  (N32.442754 W110.788720)  US/Arizona.  Observers T.
   A. Pruyne, B. M. Africano, E. C. Beshore, A. Boattini, E. J. Christensen,
   G. A. Farneth, D. C. Fuls, G. J. Garradd, A. R. Gibbs, A. D. Grauer, H.
   Gröller, R. E. Hill, J. A. Johnson, R. A. Kowalski, S. M. Larson, G. J.
   Leonard, R. G. Matheny, R. H. McNaught, D. Rankin, R. L. Seaman, F. C.
   Shelly. Measurer y. 1.5-m reflector + 4K CCD + 10K CCD.
(I41) Palomar Mountain--ZTF  (N33.357340 W116.859780)  US/California. 1.2-m
   f/2.44 Oschin Schmidt + CCD.
(J95) Great Shefford  (N51.474969 W1.447003)  UK.  Observer P. Birtwhistle.
   0.40-m f/6.0 Schmidt-Cassegrain + CCD.
(Y00) SONEAR Observatory, Oliveira  (S20.715082 W44.784960)  Brazil.
   Observers C. Jacques, E. Pimentel, J. Barros. Measurer C. Jacques. 0.28-m
   f/2.2 astrograph + CCD.

Orbital elements:  SOLRAD 11A = 1976-023C = NORAD 08748 = WB31C9F = XC83E0D
   Perigee 2018 Dec 29.623576 +/- 0.000259 TT = 14:57:57 (JD 2458482.123576)
A1: 1.4e-9 +/- 1.26e-10   A2: 1.18e-9 +/- 1.48e-11 AU/day^2
Epoch 2019 Jan  1.0 TT = JDT 2458484.5                        Gray
M 168.4743589014 +/- 0.018          (J2000 equator)
n  70.8940740771 +/- 9.44e-6        Peri.   18.4236065 +/- 0.017
a124794.91312 +/- 0.0111            Node   345.0673651 +/- 0.00021
e   0.009597680 +/- 5.79e-6         Incl.   32.5526883 +/- 0.000055
P7312.18m/5.078d           H 31.2   G  0.15   U  5.0
q 123597.17143 +/- 0.73    Q 125992.65481 +/- 0.715
50 of 70 observations 2016 Feb. 8-2020 Jan. 6; mean residual 3".023
Residuals in arcseconds: 
060709 703(5776+ 1094+)   160208 G96 2.69- 1.76+    200106 I41 1.04+ .520-
060709 703(5774+ 1094+)   160208 G96 4.31- 3.52+    200106 I41 .509+ 1.39-
060709 703(5773+ 1094+)   160208 G96 2.82- 1.97+    200106 I41 2.72- 2.58+
060709 703(5775+ 1094+)   160208 G96 2.23- 1.75+    200106 I41 3.92- 3.15+
060709 703(5775+ 1095+)   160208 G96 4.07- 3.55+    200106 I41 .310+ .695+
060709 703(5775+ 1094+)   160208 G96 5.82- 5.01+    200106 I41 1.13- 1.17+
060709 703(5776+ 1095+)   160211 J95 .088- .085-    200106 I41 .970- 1.12+
060709 703(5774+ 1095+)   160211 J95 .199- .248-    200106 I41 .841- .793+
150117 703(43.3- 20.5+)   160211 J95 .531- .435+    200106 I41 .353+ .639-
150117 703(44.4- 21.3+)   160211 J95 .779+ .672+    200106 I41 .183- .027+
150117 703(43.9- 21.0+)   160211 J95 1.12+ .983+    200106 I41 1.23- .369+
150117 703(45.4- 22.0+)   161224 598 1.53- .336-    200106 I41 .621- .607+
150117 703(43.9- 21.3+)   161224 598 .448- .809-    200106 I41 .466+ .381+
150117 703(41.3- 19.5+)   161224 598 1.21- .507-    200106 I41 .307+ .090+
150117 703(44.4- 21.7+)   161224 598 .208+ 1.31-    200106 I41 1.72+ .526-
150117 703(44.7- 22.0+)   161229 Y00 9.62+ 7.06-    200106 I41 .620+ .229-
150117 703(43.5- 21.5+)   161229 Y00 10.8+ 7.00-    200106 I41 2.76- 2.83+
150117 703(43.7- 21.6+)   161229 Y00 12.5+ 7.53-    200106 I41 2.40- 2.11+
150117 703(49.9- 25.4+)   170802 Y00 5.04- 3.56-    200106 I41 1.33+ .673-
150117 703(44.4- 22.0+)   170802 Y00 4.98- 3.80-    200106 I41 .385+ .676-
160208 G96 .572+ .629-    170802 Y00 6.51- 3.11-    200106 I41 .565+ .359+
